Globalstar M093

operational
NORAD ID: 39073 Int'l Des: 2013-005 Owner: GLOBL Country: US Constellation: globalstar
LEOCIRCULAR

About Globalstar M093

Description loading...

Live Position

Loading 3D Globe...

Upcoming Passes

Altitude History

Altitude vs Time

uPlot chart will show altitude changes over time

Two-Line Element Set

1 39073U 13005B 25299.06827374 -.00000070 00000-0 18744-3 0 9990
2 39073 52.0100 229.2736 0000545 97.5902 262.5026 12.62265671587291
Epoch: Oct 26, 2025 • Age: 10 hours

Current Status

Altitude 1414.8 km
Velocity 7.16 km/s
Sub-Earth Point 29.72°N, 168.25°E
Launch Date Feb 6, 2013
Age 12.7 years
Type communications

Technical Details

Classification Payload
Mass 715.00 kg
Dry Mass 500.00 kg
Total Mass 715.00 kg
Length 4.00 m
Diameter 2.00 m
Span 12.00 m
Shape Trap Cyl + 2 Pan
Manufacturer THALR
Bus Type Prisma
Phase Status In Orbit
Owner/State GLOBL/US

Large Constellations

Loading constellations...